Overview Statistics Trail Chart Weather Telemetry Raw packets
 

This is the latest recevied weather packets stored in our database for station/object SV9TNF-52. If no packets are shown the sender has not sent any weather packets the latest 10 day(s).

<< 68 69 70 71 72 73 74 >>
Time Temp. Humidity Pressure Rain* Wind** Luminosity Snow
1788199074 24.44° C 71% 1020 hPa 0 mm 4.92 m/s, 223° - -
1788198774 25° C 71% 1020 hPa 0 mm 4.47 m/s, 188° - -
1788198474 25.56° C 71% 1019.6 hPa 0 mm 4.02 m/s, 217° - -
1788198174 25.56° C 70% 1019.6 hPa 0 mm 2.68 m/s, 234° - -
1788197874 26.11° C 70% 1019.6 hPa 0 mm 0.45 m/s, 245° - -
1788197574 26.11° C 70% 1020 hPa 0 mm 1.34 m/s, 239° - -
1788197274 26.67° C 69% 1020 hPa 0 mm 0 m/s - -
1788196974 26.67° C 69% 1020 hPa 0 mm 0 m/s - -
1788196673 26.67° C 69% 1020 hPa 0 mm 0 m/s - -
1788196373 26.67° C 68% 1019.6 hPa 0 mm 0 m/s - -
1788196073 26.67° C 68% 1019.6 hPa 0 mm 0 m/s - -
1788195774 26.67° C 68% 1019.6 hPa 0 mm 1.34 m/s, 9° - -
1788195473 27.22° C 68% 1019.6 hPa 0 mm 1.34 m/s, 358° - -
1788195173 27.22° C 67% 1019.6 hPa 0 mm 0 m/s - -
1788194873 27.22° C 67% 1019.6 hPa 0 mm 0 m/s - -
1788194573 27.78° C 66% 1019.6 hPa 0 mm 0.89 m/s, 263° - -
1788194273 27.78° C 65% 1019.6 hPa 0 mm 0.89 m/s, 249° - -
1788193973 27.78° C 65% 1019.6 hPa 0 mm 0 m/s - -
1788193673 28.33° C 65% 1019.6 hPa 0 mm 0.45 m/s, 268° - -
1788193373 28.33° C 64% 1019.6 hPa 0 mm 2.68 m/s, 248° - -
1788193072 28.33° C 64% 1019.6 hPa 0 mm 1.79 m/s, 270° - -
1788192779 28.33° C 64% 1020 hPa 0 mm 1.34 m/s, 254° - -
1788192472 28.89° C 64% 1020 hPa 0 mm 0.45 m/s, 339° - -
1788192172 28.89° C 64% 1020 hPa 0 mm 3.13 m/s, 303° - -
1788191872 28.89° C 65% 1020 hPa 0 mm 1.79 m/s, 352° - -

* Rain latest hour (hover to see other rain measurements)
** Current wind speed in m/s (hover to see current wind gust speed)